View from above orbital plane
|
View from above satellite
|
Ground track
|
The orbit data is extracted from the following two-line orbital elements,
1 14085U 83048B 21108.80891860 -.00000028 00000-0 -44219-4 0 9999
2 14085 82.9405 129.4145 0034318 143.9430 216.4051 13.76308316903174
Epoch (UTC): | 18 April 2021 19:24:50 |
Eccentricity: | 0.0034318 |
inclination: | 82.9405° |
perigee height: | 952 km |
apogee height: | 1002 km |
right ascension of ascending node: | 129.4145° |
argument of perigee: | 143.9430° |
revolutions per day: | 13.76308316 |
mean anomaly at epoch: | 216.4051° |
orbit number at epoch: | 90317 |
The dashed part of the orbit path shows where the satellite is in the earth's shadow,
|
|